Regional Weather Roundup
Issued by NWS

Home | Current Version | Previous Version | Text Only | Print | Product List | Glossary On
Versions: 1 2 3 4 5 6 7 8 9 10 11 12 13 14 15 16 17 18 19 20 21 22 23 24 25 26 27 28 29 30 31 32 33 34 35 36 37 38 39 40 41 42 43 44 45 46 47 48 49 50
000
ASUS43 KLMK 210602
RWRKY
KENTUCKY REGIONAL WEATHER ROUNDUP
NATIONAL WEATHER SERVICE LOUISVILLE KY
200 AM EDT SUN SEP 21 2014

NOTE "FAIR" INDICATES FEW OR NO CLOUDS BELOW 12,000 FEET
WITH NO SIGNIFICANT WEATHER AND/OR OBSTRUCTIONS TO VISIBILITY.

KYZ001>023-026-027-061>063-070>075-210700-
WESTERN AND SOUTH CENTRAL KENTUCKY

CITY           SKY/WX    TMP DP  RH WIND       PRES   REMARKS
PADUCAH        CLEAR     76  67  73 SW9       29.96F
HENDERSON      CLEAR     70  64  83 SW7       29.94S
OWENSBORO      CLEAR     69  66  90 S3        29.94F
HOPKINSVILLE   CLEAR     70  70 100 S5        29.99F
BOWLING GREEN  CLEAR     70  65  84 SW5       29.98F
GLASGOW        CLEAR     67  67  99 CALM      29.99F
$$

KYZ024-025-028>034-038-045-046-053-210700-
NORTH CENTRAL KENTUCKY

CITY           SKY/WX    TMP DP  RH WIND       PRES   REMARKS
LOUISVILLE/SDF PTCLDY    74  65  73 SW9       29.92F
LOUISVILLE/LOU CLEAR     71  65  81 S3        29.93F
FORT KNOX      CLEAR     67  65  91 S7        29.94F
$$

KYZ035>037-039>044-047>052-055>060-089>105-210700-
NORTHEAST KENTUCKY

CITY           SKY/WX    TMP DP  RH WIND       PRES   REMARKS
LEXINGTON      PTCLDY    70  64  81 S12       29.96F
COVINGTON      MOCLDY    70  64  81 S8        29.90F
FRANKFORT      CLEAR     70  64  81 SW10      29.93F
$$

KYZ054-064>069-076>088-106>120-210700-
SOUTHEAST KENTUCKY

CITY           SKY/WX    TMP DP  RH WIND       PRES   REMARKS
JACKSON        PTCLDY    65  62  90 CALM      30.01S
LONDON         PTCLDY    65  61  87 CALM      30.02S
SOMERSET       PTCLDY    64  64 100 CALM      30.02S FOG
MIDDLESBORO    MOCLDY    59  59  98 CALM      30.04F
MONTICELLO     CLEAR     62  62 100 CALM      30.02F
$$




USA.gov is the U.S. government's official web portal to all federal, state and local government web resources and services.